LFPO Airport Information

Runway Information
Runway 02 Length 7874 ft width 197 ft
Elevation 287 ft Threshold 0 ft Heading 18
Runway 20 Length 7874 ft Width 197 ft
Elevation 287 ft Threshold 0 ft Heading 198
Runway 06 Length 11975 ft width 148 ft
Elevation 283 ft Threshold 984 ft Heading 62
Runway 24 Length 11975 ft Width 148 ft
Elevation 284 ft Threshold 0 ft Heading 242
Runway 08 Length 10892 ft width 148 ft
Elevation 277 ft Threshold 0 ft Heading 74
Runway 26 Length 10892 ft Width 148 ft
Elevation 287 ft Threshold 1427 ft Heading 254
Airport Frequencies
Type APP Name APP Frequency 123.875 MHZ
Type ATIS Name ATIS Frequency 131.35 MHZ
Type DEP Name DEP Frequency 127.75 MHZ
Type GND Name GND Frequency 121.7 MHZ
Type PFLT Name PREFLIGHT Frequency 121.05 MHZ
Type TWR Name TWR Frequency 118.7 MHZ
Airport Navaids
Type VOR-DME Name Orly Frequency 111200 KHZ
Airport Weather Information & NOTAM
ADDS - METARS form results

(0859 UTC 20 July 2018)
 
METAR text: LFPO 200830Z 22007KT 190V250 9999 FEW015 SCT070 BKN093 20/17 Q1015 NOSIG
Conditions at: LFPO (PARIS/ORLY , FR) observed 0830 UTC 20 July 2018
Temperature: 20.0°C (68°F)
Dewpoint: 17.0°C (63°F) [RH = 83%]
Pressure (altimeter): 29.97 inches Hg (1015.0 mb)
Winds: from the SW (220 degrees) at 8 MPH (7 knots; 3.6 m/s)
Visibility: 6 or more miles (10+ km)
Ceiling: 9300 feet AGL
Clouds: few clouds at 1500 feet AGL
scattered clouds at 7000 feet AGL
broken clouds at 9300 feet AGL
Weather: no significant weather observed at this time

METAR text: LFPO 200800Z 19007KT 9999 FEW015 SCT070 BKN093 20/17 Q1015 NOSIG
Conditions at: LFPO (PARIS/ORLY , FR) observed 0800 UTC 20 July 2018
Temperature: 20.0°C (68°F)
Dewpoint: 17.0°C (63°F) [RH = 83%]
Pressure (altimeter): 29.97 inches Hg (1015.0 mb)
Winds: from the S (190 degrees) at 8 MPH (7 knots; 3.6 m/s)
Visibility: 6 or more miles (10+ km)
Ceiling: 9300 feet AGL
Clouds: few clouds at 1500 feet AGL
scattered clouds at 7000 feet AGL
broken clouds at 9300 feet AGL
Weather: no significant weather observed at this time